Home   Weather   Ravensburg   Past weeks

Flag for Germany Past Weather in Ravensburg, Baden-Württemberg, Germany — Yesterday and Last 2 Weeks

50 °F

Passing clouds.

Feels Like: 48 °F
Forecast: 31 / 53 °F
Wind: 5 mph from Southwest

Location: Friedrichshafen Airport

Current Time: Oct 22, 2016 at 3:34:15 PM

Latest Report: Oct 22, 2016 at 2:50 PM

Visibility: N/A

Pressure: 29.95 "Hg

Humidity: 67%

Dew Point: 39 °F

Location of RavensburgLocation

Past Weather in Ravensburg — Graph


Ravensburg Temperature Yesterday

Maximum temperature yesterday: 46 °F (at 12:20 AM)
Minimum temperature yesterday: 43 °F (at 8:20 AM)
Average temperature yesterday: 45 °F

High & Low Weather Summary for the Past Weeks

High61 °F (Oct 15, 4:50 PM)100% (Oct 9, 5:20 AM)30.27 "Hg (Oct 9, 5:20 AM)
Low34 °F (Oct 13, 5:50 AM)50% (Oct 12, 5:20 PM)29.65 "Hg (Oct 14, 4:20 PM)
Average47 °F86%30.06 "Hg
* Reported Oct 7 2:20 PM — Oct 22 2:20 PM, Ravensburg, Weather by CustomWeather, © 2016

Note: Actual official high and low records may vary slightly from our data, if they occured in-between our weather recording intervals... More about our weather records


Ravensburg Weather History for the Previous 24 Hours

Scroll right to see more
Time TempWeatherWind HumidityBarometerVisibility
2:20 PM
Sat, Oct 22
52 °FPassing clouds.2 mph67%29.95 "HgN/A
1:50 PM48 °FScattered clouds.3 mph71%29.98 "HgN/A
1:20 PM48 °FScattered clouds.2 mph71%29.98 "HgN/A
12:50 PM46 °FScattered clouds.3 mph82%29.98 "HgN/A
12:20 PM46 °FScattered clouds.3 mph82%29.98 "HgN/A
11:50 AM46 °FBroken clouds.2 mph82%29.98 "HgN/A
11:20 AM48 °FPartly sunny.6 mph76%29.98 "HgN/A
10:50 AM46 °FPartly sunny.2 mph82%29.98 "HgN/A
10:20 AM46 °FPassing clouds.1 mph87%29.98 "Hg5 mi
9:50 AM43 °FPassing clouds.2 mph100%29.98 "Hg4 mi
9:20 AM39 °FFog.2 mph100%29.98 "Hg1 mi
8:50 AM36 °FFog.1 mph100%30.01 "Hg1 mi
8:20 AM36 °FChilly.2 mph100%29.98 "Hg0 mi
7:51 AM36 °FChilly.No wind100%29.98 "Hg0 mi
7:20 AM37 °FFog.No wind93%29.98 "Hg1 mi
6:50 AM37 °FFog.No wind100%29.98 "Hg1 mi
6:20 AM37 °FFog.1 mph100%29.98 "Hg0 mi
5:50 AM37 °FFog.No wind100%29.98 "Hg0 mi
5:20 AM39 °FChilly.1 mph93%29.98 "Hg0 mi
4:55 AM39 °FChilly.2 mph100%29.98 "Hg0 mi
4:50 AM39 °FChilly.2 mph100%29.98 "Hg1 mi
4:20 AM41 °FQuite cool.2 mph100%29.98 "Hg1 mi
3:50 AM41 °FQuite cool.2 mph100%29.98 "Hg1 mi
3:20 AM43 °FMostly cloudy.1 mph93%30.01 "Hg3 mi
2:50 AM43 °FFog.1 mph93%30.01 "Hg1 mi
1:50 AM43 °FFog.No wind100%30.01 "Hg2 mi
1:20 AM43 °FFog.1 mph100%30.01 "Hg2 mi
12:50 AM43 °FFog.No wind100%30.01 "Hg2 mi
12:20 AM43 °FFog.2 mph100%30.01 "Hg2 mi
11:55 PM
Fri, Oct 21
43 °FSprinkles. Fog.1 mph100%30.01 "Hg2 mi
11:20 PM43 °FOvercast.No wind100%30.04 "Hg4 mi
10:50 PM43 °FMostly cloudy.2 mph100%30.04 "Hg5 mi
10:20 PM43 °FMostly cloudy.No wind100%30.04 "Hg4 mi
9:50 PM43 °FMostly cloudy.2 mph100%30.04 "Hg4 mi
9:20 PM43 °FMostly cloudy.1 mph100%30.01 "Hg4 mi
8:50 PM43 °FMostly cloudy.No wind100%30.01 "HgN/A
8:20 PM43 °FOvercast.No wind100%30.01 "Hg5 mi
7:50 PM43 °FMostly cloudy.No wind100%30.01 "HgN/A
7:20 PM45 °FMostly cloudy.1 mph93%30.01 "HgN/A
6:50 PM45 °FSprinkles. Mostly cloudy.1 mph93%30.01 "HgN/A
6:20 PM45 °FLight rain. More clouds than sun.1 mph93%30.01 "HgN/A
5:50 PM45 °FPartly sunny.1 mph93%30.01 "HgN/A
5:20 PM46 °FMostly cloudy.3 mph82%30.01 "HgN/A
4:50 PM46 °FPartly sunny.6 mph82%30.01 "HgN/A
4:20 PM46 °FPartly sunny.6 mph82%30.01 "HgN/A
3:50 PM46 °FMostly cloudy.7 mph82%30.01 "HgN/A
3:20 PM46 °FCloudy.7 mph82%30.01 "HgN/A
Weather by CustomWeather, © 2016

See weather overviewHow to use our weather pages